Wind_Speed
49 47 46 46 47 46 45 44 43 43 42 41 40 39 37 35 33 30 30 29 30 30 31 30 30 30 30 30 30 28 27 27 26 25 24 23 22 22 22 22 22 22 21 19 19 18 18 17 17 15 14 14 15 15 15 15 15 15 15 16 17 17 16 16 17 16 15 14 14 14 13 11 12 12 12 13 12 11 10 10 10 10 9 10 11
49 47 46 46 45 45 44 44 43 43 43 43 42 41 39 37 34 33 32 31 30 30 31 32 32 31 31 32 31 29 29 28 27 27 26 25 23 23 23 23 24 23 23 22 21 20 19 18 17 16 15 15 15 16 16 16 16 16 17 17 17 18 17 17 17 17 17 16 15 14 13 12 12 12 12 13 13 12 12 11 11 10 10 11 11
51 49 48 47 45 44 44 44 43 43 43 43 43 42 41 38 36 35 34 33 32 31 31 32 33 33 33 33 33 31 30 29 29 29 28 26 25 25 24 24 24 24 24 23 22 21 20 18 17 17 16 16 16 16 16 17 18 18 18 18 17 18 17 17 17 17 17 17 15 14 13 12 12 12 12 13 13 13 13 13 12 11 11 11 11
53 51 50 48 47 46 46 45 44 44 44 44 43 42 41 39 38 37 35 35 34 33 32 32 33 34 35 35 35 33 32 31 31 30 29 28 27 26 25 25 25 25 25 24 23 22 21 20 18 17 16 16 17 16 17 18 19 19 19 19 18 17 17 16 15 15 15 16 16 14 13 13 12 12 13 13 14 14 14 14 13 12 11 11 12
54 53 51 50 50 49 48 47 46 46 46 45 44 43 42 41 39 38 37 37 36 34 33 33 34 36 37 37 36 35 34 33 33 32 31 30 29 28 27 26 25 25 25 25 24 23 22 21 20 19 18 18 18 18 18 18 19 20 20 20 19 18 17 16 15 15 15 16 16 15 15 14 13 13 14 15 15 15 15 15 14 12 12 13 13
54 54 52 52 52 51 50 49 48 47 46 45 44 43 43 42 40 39 38 38 37 36 36 35 36 37 38 38 38 36 35 35 34 34 33 32 31 30 29 28 27 26 25 25 25 24 23 22 21 21 20 20 19 18 18 18 20 21 22 21 20 18 17 17 16 16 16 16 16 16 16 15 15 15 15 15 16 16 16 17 16 14 13 15 16
54 54 53 52 52 52 51 49 48 48 47 45 45 44 43 42 41 40 39 39 39 38 37 37 37 37 38 39 39 38 37 36 36 35 35 34 33 32 30 29 28 27 27 26 25 24 24 23 22 22 22 22 21 19 18 18 19 21 22 22 21 20 19 18 17 17 17 18 17 17 17 16 15 16 16 16 17 17 17 17 17 16 15 17 17
53 52 52 52 53 52 50 49 49 48 47 46 45 45 44 43 42 41 40 40 40 39 38 38 38 38 38 39 40 39 39 38 38 37 37 36 35 33 32 31 30 29 28 27 25 25 24 24 24 24 24 23 21 20 19 19 19 19 20 21 22 21 20 20 19 19 19 19 19 19 18 17 16 15 16 16 17 18 18 18 19 19 18 18 18
51 51 52 53 52 51 49 49 50 49 49 47 46 46 45 44 43 42 41 41 40 40 39 39 39 39 39 39 40 41 41 40 40 40 38 37 36 35 33 33 31 30 29 28 27 25 25 24 25 25 24 23 21 21 20 20 20 19 18 19 21 22 22 21 21 20 20 20 20 19 18 18 17 16 16 17 17 18 19 20 21 21 20 20 20
50 51 53 52 51 50 50 50 50 50 49 48 47 46 46 45 44 43 42 41 41 41 40 40 41 41 40 40 41 42 43 43 42 41 40 38 36 35 34 34 32 32 31 30 28 26 25 24 24 24 24 24 23 23 22 22 22 20 19 19 20 21 22 23 23 22 21 21 21 19 19 20 18 16 16 18 19 20 21 21 22 21 20 22 23
50 51 52 51 50 51 50 50 50 50 49 48 47 47 46 46 45 44 43 43 42 42 42 42 41 41 41 41 42 44 45 44 43 42 40 38 37 35 34 34 33 33 33 31 29 27 25 24 23 24 24 25 24 23 23 23 22 21 21 20 20 21 22 23 24 23 23 22 21 19 19 19 18 16 18 20 20 20 21 21 21 21 21 23 23
50 51 51 50 51 51 50 50 50 49 49 48 48 47 46 46 46 45 45 44 43 44 43 42 42 42 42 43 43 45 46 44 43 42 40 39 37 36 34 34 34 35 34 32 29 27 25 25 24 24 25 24 23 23 24 22 21 22 23 23 21 21 22 22 23 24 23 22 20 19 18 18 18 18 19 20 20 21 21 21 21 21 21 22 22
49 50 50 50 50 50 50 50 50 49 49 49 48 47 47 47 47 47 46 44 44 45 44 43 43 43 44 44 44 45 46 45 44 43 41 39 38 36 34 34 35 35 34 31 29 27 27 26 25 25 25 23 22 23 23 22 21 21 23 24 23 22 22 22 23 23 23 21 20 19 19 19 19 19 19 19 21 22 22 21 22 21 21 21 21
48 49 50 50 50 50 50 50 49 49 49 49 49 48 48 48 48 48 47 46 46 46 45 44 45 45 45 45 45 45 46 46 45 44 42 41 38 36 35 34 35 36 34 30 28 28 28 27 26 25 24 22 22 23 22 21 20 20 21 24 25 23 22 23 23 23 23 22 21 20 20 19 19 18 19 20 21 22 22 22 22 20 19 20 20
48 48 49 50 50 50 50 50 50 50 50 50 49 49 49 49 48 49 49 48 48 47 46 45 45 45 45 46 46 46 46 47 47 45 43 41 39 37 36 35 36 36 34 30 29 29 29 28 27 27 25 23 23 22 21 20 19 19 20 24 25 23 22 23 24 23 23 23 22 20 19 19 19 19 21 21 21 21 20 19 19 18 18 18 17
46 47 48 49 49 49 49 49 49 49 49 49 49 49 49 49 49 49 49 48 49 48 47 46 46 46 46 47 47 47 47 47 48 46 44 42 40 38 37 37 37 38 35 31 29 30 30 29 29 28 26 23 23 21 19 19 20 20 21 24 24 20 19 22 23 22 22 22 21 19 18 19 19 20 21 20 19 19 17 16 16 16 16 14 12
45 45 46 47 48 47 46 47 47 48 48 49 50 49 49 49 49 49 48 48 49 49 48 48 47 46 47 47 47 48 47 47 48 47 44 41 40 40 39 38 39 39 36 32 30 30 31 31 31 29 26 24 22 20 18 19 20 20 21 24 23 18 16 20 21 20 21 21 20 18 17 18 19 20 19 17 16 16 16 15 14 12 10 10 10
42 44 45 46 44 42 42 44 45 46 48 48 49 49 49 49 49 49 48 48 49 49 48 49 48 47 47 47 47 48 47 46 47 47 44 42 41 41 40 39 40 41 38 34 32 31 32 32 31 28 25 23 21 19 19 19 19 20 21 23 21 18 17 19 20 20 20 20 19 17 17 18 19 18 15 13 13 14 14 13 10 9 10 11 11
40 42 43 41 39 39 40 43 44 45 45 46 48 48 48 48 48 49 49 49 49 49 49 49 48 46 46 47 47 47 47 47 48 47 45 43 42 41 41 40 41 41 39 36 34 33 34 33 31 27 25 23 21 20 19 20 20 20 21 21 18 16 17 18 19 20 20 19 17 16 16 18 18 16 14 13 13 13 13 11 10 11 12 11 10
36 37 37 37 37 39 41 43 43 42 43 44 45 46 46 47 47 48 49 49 50 51 51 52 51 49 48 47 48 49 48 47 48 48 46 43 41 40 40 41 41 41 40 37 35 35 36 34 30 27 25 23 21 20 20 21 21 21 21 21 19 17 17 18 19 19 18 16 16 16 17 17 17 16 15 14 13 12 11 11 11 11 11 9 8
29 30 32 34 36 39 41 41 40 40 41 42 44 45 46 46 47 48 48 48 50 51 52 53 53 53 53 52 50 51 51 50 48 48 47 45 42 41 41 41 41 40 39 37 36 37 37 33 28 25 24 23 22 22 22 22 23 22 23 23 21 19 17 17 18 18 16 16 16 16 16 16 16 17 16 14 13 12 11 10 9 9 9 8 8
26 28 30 32 34 36 38 39 38 38 39 41 42 43 44 46 48 48 48 49 51 52 53 53 54 54 54 53 50 47 48 50 50 48 47 46 43 42 43 42 39 38 38 37 37 38 35 30 25 23 22 22 23 23 23 23 23 23 23 22 20 18 18 18 18 17 16 16 16 17 16 15 16 17 15 13 12 11 9 9 8 7 7 7 7
23 25 27 30 32 33 35 36 36 37 38 40 41 41 43 46 47 48 50 51 51 52 53 54 54 50 46 46 48 46 45 49 52 50 48 47 45 43 44 42 38 36 37 36 37 36 31 27 24 21 21 23 24 23 23 24 23 23 22 21 20 20 21 20 18 17 16 16 16 16 16 15 15 16 14 12 11 10 9 8 7 7 7 7 8
17 19 22 25 28 30 31 32 34 36 37 39 40 42 43 45 47 49 50 51 51 53 51 50 51 49 43 43 49 51 50 52 54 54 51 49 46 45 44 42 38 36 35 35 35 32 28 25 23 21 22 24 24 24 24 24 24 24 23 21 22 24 24 21 18 17 16 17 16 16 15 15 15 14 12 11 10 10 9 8 8 7 7 8 9
12 14 16 19 22 24 26 28 31 33 35 37 40 42 44 46 47 49 50 49 49 47 43 41 44 46 47 50 54 55 55 56 54 54 54 51 47 46 44 41 38 36 35 35 34 30 27 26 24 23 24 25 25 24 24 24 25 25 23 23 25 27 25 21 19 17 17 17 16 16 16 16 15 13 11 10 10 10 9 9 8 8 9 10 11
10 11 12 14 16 19 22 25 28 30 33 35 38 40 43 45 47 49 49 48 45 41 39 39 40 39 43 53 58 54 54 57 56 54 53 50 48 46 43 39 36 36 36 36 34 30 28 27 25 25 26 26 25 24 24 25 26 25 24 25 27 27 25 22 20 18 17 17 17 17 17 15 14 12 11 10 10 11 10 10 10 10 11 11 12
7 9 10 11 13 15 18 22 25 28 30 33 37 39 41 43 45 47 48 45 40 38 40 43 44 40 38 43 47 45 44 51 56 56 54 52 50 47 43 39 36 37 38 38 36 33 30 28 27 29 28 26 25 24 25 27 27 27 26 27 28 26 23 21 19 17 17 17 17 17 16 15 13 12 11 10 11 11 11 10 11 11 12 13 14
4 5 7 9 11 13 16 18 21 24 25 27 31 34 36 38 39 40 45 46 43 41 41 40 43 46 45 39 37 39 44 51 57 58 56 55 54 51 48 44 41 42 43 41 39 37 33 31 32 32 30 28 28 28 29 29 29 29 29 29 28 25 23 20 18 17 18 18 18 17 16 15 13 12 11 11 11 11 11 11 12 12 14 15 15
5 6 7 8 10 12 13 15 17 20 21 22 25 27 30 33 34 35 40 45 47 48 47 43 41 45 49 46 40 43 51 57 60 60 59 56 53 50 50 48 47 47 47 45 42 39 37 37 37 36 34 32 33 33 33 32 32 31 31 29 27 24 21 20 19 19 19 19 17 16 15 14 13 12 12 12 12 13 13 13 13 14 15 16 16
3 4 6 8 9 11 12 13 14 16 18 21 23 26 29 32 34 35 37 41 44 47 50 51 48 46 49 51 50 52 57 61 59 60 61 59 54 50 49 48 48 48 48 46 44 42 42 42 41 39 37 37 37 36 36 35 34 32 31 28 25 23 21 20 19 19 19 18 17 17 16 15 14 14 14 14 15 15 15 15 16 16 16 17 17
5 4 3 3 4 5 7 8 9 11 13 16 19 23 26 29 31 35 37 40 43 44 46 50 53 53 54 56 57 59 61 61 60 62 64 62 58 53 50 49 50 49 48 48 47 46 47 47 43 41 40 39 37 36 36 35 34 32 30 28 25 23 22 21 21 20 19 18 18 17 17 16 15 15 15 15 16 17 17 17 17 16 16 17 17
10 10 9 7 6 5 4 3 3 4 5 7 9 11 14 18 20 23 27 33 38 43 45 49 53 56 58 59 61 64 65 63 62 63 64 63 61 56 53 53 54 52 50 50 49 49 49 47 45 43 41 39 36 36 36 35 33 31 29 27 25 23 23 22 21 20 19 19 18 17 16 15 15 15 15 16 17 18 18 17 16 15 16 17 18
16 15 14 12 11 10 11 12 12 12 12 11 11 11 13 14 16 16 16 18 22 28 33 40 47 54 60 62 63 65 67 67 66 65 65 62 57 54 55 55 53 52 51 50 49 47 44 42 43 43 40 37 36 36 35 33 31 29 28 26 24 24 23 22 21 20 19 18 17 17 16 15 15 15 15 15 16 17 17 15 15 15 16 17 17
19 19 18 17 16 16 16 16 16 16 16 16 16 17 19 20 21 23 23 22 22 25 28 31 34 40 50 60 66 68 69 71 71 69 67 62 54 52 55 55 51 50 51 51 47 42 39 40 41 41 38 36 36 36 34 32 30 29 27 26 25 24 23 22 21 20 19 18 17 17 16 15 15 15 16 16 16 16 15 15 15 15 16 16 15
20 20 20 19 18 17 16 16 16 15 15 16 17 18 19 20 22 23 25 27 30 34 38 39 39 38 39 47 57 64 68 72 74 72 68 63 56 55 57 57 54 52 51 48 42 37 36 39 40 38 37 36 36 35 33 31 30 29 28 27 26 24 23 23 22 20 19 18 18 18 16 16 17 17 17 18 17 16 14 14 13 14 15 14 13
17 17 17 16 15 14 14 13 13 13 13 14 15 15 16 17 20 21 24 28 33 39 45 46 43 42 40 40 47 56 63 70 77 78 71 61 58 60 62 61 58 54 50 45 40 37 38 41 41 38 36 35 34 33 31 30 30 29 28 26 25 24 24 23 22 21 20 19 18 17 16 17 18 18 18 17 17 15 14 12 12 12 12 11 10
13 12 12 12 11 11 11 11 10 11 12 13 13 12 13 15 17 19 24 28 33 40 46 46 42 40 37 35 39 48 58 67 75 77 69 61 59 62 62 59 55 50 47 43 40 39 40 41 41 37 34 33 33 32 31 31 30 29 26 24 24 24 23 22 22 20 20 19 17 17 16 17 18 18 17 16 15 14 12 11 9 9 10 11 12
12 11 11 11 11 10 10 10 9 9 11 12 12 12 13 14 15 17 22 26 31 37 41 40 39 37 31 30 32 39 55 70 76 72 64 60 61 61 58 53 48 43 40 38 36 36 37 38 37 35 33 33 33 32 32 31 29 27 25 24 24 23 22 21 20 19 18 17 16 16 15 16 16 17 15 14 13 12 10 8 7 7 8 10 11
13 12 11 12 11 10 10 8 7 8 9 10 11 12 13 13 14 16 20 22 25 31 35 36 38 40 32 21 14 21 39 56 67 69 64 60 60 57 52 45 40 36 36 36 36 36 36 36 36 35 34 34 34 33 31 30 28 27 26 26 25 24 22 21 20 18 17 16 15 15 15 15 15 15 14 13 11 11 9 8 7 6 6 7 7
10 10 11 12 11 11 11 9 7 7 7 8 10 12 12 11 12 14 16 18 20 25 29 32 37 44 43 32 23 26 30 37 50 60 60 56 54 49 43 38 34 33 35 37 38 38 38 37 36 35 34 34 33 32 30 29 28 27 26 25 24 22 21 19 18 17 16 15 14 14 14 14 14 14 13 12 11 10 9 7 6 7 7 8 9
7 8 9 10 11 12 12 10 7 7 7 7 8 10 10 10 10 10 12 15 16 18 21 25 29 33 35 34 32 31 32 34 38 42 43 43 41 36 32 31 30 32 36 38 38 38 38 37 35 34 33 32 31 29 28 28 28 27 25 23 21 20 19 18 17 16 14 14 14 14 14 15 15 14 13 12 11 10 8 7 6 6 7 8 10
7 6 7 8 9 11 12 11 9 7 6 6 7 7 8 9 8 7 9 12 13 13 14 17 22 23 22 20 21 20 20 23 24 26 28 29 28 25 24 25 27 30 34 35 35 36 36 35 34 33 32 30 29 28 29 29 28 26 24 22 20 19 18 17 16 15 13 13 14 14 15 15 14 13 12 11 10 9 8 7 6 7 8 9 11
8 6 6 7 7 9 10 11 11 9 7 6 5 6 7 8 7 6 6 8 9 9 10 10 11 14 17 17 12 8 7 9 11 16 23 25 25 25 26 26 27 29 30 29 30 32 33 32 32 31 30 28 28 29 29 28 26 24 23 21 20 18 17 15 14 13 13 14 15 15 15 15 14 12 11 10 9 8 8 7 7 8 9 10 11
7 6 6 6 7 7 7 8 9 9 8 7 6 6 6 7 6 5 4 4 5 6 7 8 7 7 12 14 11 7 8 9 11 16 21 23 24 26 27 27 27 27 26 26 28 29 29 29 28 28 27 27 28 28 27 25 23 22 21 19 17 15 13 13 13 13 14 15 16 16 15 15 13 12 11 10 9 9 8 7 8 8 9 10 10
7 6 6 5 6 6 6 6 6 6 7 8 7 7 6 7 7 6 4 2 2 3 3 3 4 3 6 7 5 4 7 10 12 16 20 22 23 25 26 26 26 26 25 26 27 27 25 25 26 28 29 29 28 26 24 23 21 20 17 14 12 11 10 11 12 13 14 16 16 16 16 15 14 12 12 11 10 9 8 8 8 9 9 9 9
8 8 8 8 7 7 8 7 6 6 6 6 6 7 6 7 7 6 5 3 1 1 0 1 2 2 2 3 4 5 8 12 15 18 20 22 23 24 25 25 25 25 25 25 25 25 25 26 29 31 31 30 28 26 24 22 19 16 13 10 9 9 9 11 12 14 17 18 17 16 16 15 14 14 13 11 11 10 10 9 9 9 8 7 7
11 11 11 11 10 10 10 10 10 10 9 7 6 7 8 8 8 7 6 4 4 3 3 4 5 6 5 5 6 6 9 13 17 18 20 21 23 23 23 23 24 25 25 25 26 27 28 29 30 30 30 28 27 25 23 20 16 13 10 7 7 7 8 9 12 15 17 18 17 17 16 15 15 15 14 13 12 12 11 11 10 9 8 7 6
14 14 14 14 14 14 14 13 13 13 12 10 9 9 10 9 8 8 8 8 5 4 5 7 7 6 7 9 10 10 11 13 15 17 18 19 20 20 21 22 23 25 26 27 27 28 29 29 29 28 28 27 25 22 20 16 13 10 7 6 5 5 5 7 10 13 16 17 17 17 17 16 15 15 14 13 13 12 12 11 10 9 8 6 6
17 17 18 18 18 18 18 17 16 15 14 12 11 11 11 9 8 8 9 9 7 6 6 6 6 5 6 7 9 11 14 16 17 17 17 18 19 20 21 22 23 24 26 27 28 28 28 28 27 26 26 24 21 19 16 14 11 8 7 5 4 3 3 5 7 10 13 15 16 16 16 15 14 13 12 11 11 11 11 10 10 9 7 6 6
19 19 19 20 20 20 19 17 16 15 15 13 11 10 11 11 10 9 9 9 9 7 7 7 5 3 3 6 9 12 16 19 19 18 17 18 19 19 20 22 23 25 26 26 27 27 27 27 26 25 24 21 19 17 15 12 10 8 7 5 4 3 3 3 5 7 10 12 13 13 12 11 10 9 9 9 9 9 10 9 9 8 7 6 6
20 20 20 21 21 21 21 19 17 16 16 15 13 11 11 11 11 10 9 9 9 7 4 7 7 6 8 11 12 13 15 17 18 17 17 17 17 18 19 20 21 23 24 24 25 26 26 27 26 25 23 20 18 16 13 11 10 8 6 5 5 5 5 5 4 6 8 9 10 9 9 8 7 7 7 7 8 8 9 9 8 8 7 6 6
Wind_Direction
235 237 236 235 236 236 236 236 236 236 236 237 237 238 238 238 237 237 237 236 234 232 232 231 231 233 236 239 241 241 241 241 241 241 242 242 240 239 239 238 240 240 239 238 237 236 235 237 239 239 240 242 244 248 251 254 256 257 256 255 255 257 259 260 263 268 273 277 281 285 285 279 276 276 274 275 276 276 274 269 268 277 291 299 303
235 237 237 237 238 238 238 238 238 237 237 237 237 237 238 238 237 237 237 236 234 233 232 232 231 232 234 237 238 239 240 240 242 242 242 242 241 239 238 238 239 240 240 238 238 238 238 239 241 242 243 245 246 248 250 252 254 256 259 259 260 262 261 261 264 267 271 276 277 276 276 275 272 270 268 265 266 267 265 262 266 274 284 292 301
236 236 236 237 239 239 239 239 239 239 238 237 237 237 238 238 238 237 237 236 236 234 232 232 232 232 234 236 237 238 238 239 241 242 242 242 242 240 239 239 240 241 241 241 241 241 241 242 244 245 246 249 251 253 254 255 255 256 259 262 264 266 264 262 264 265 268 273 273 270 271 272 271 268 265 261 260 261 258 257 263 271 281 292 306
236 237 236 237 238 238 239 239 240 239 239 239 238 238 238 238 238 237 237 237 237 235 234 234 234 233 233 235 236 236 237 238 239 241 241 242 242 241 240 240 241 242 243 244 245 246 246 246 248 250 251 253 254 256 257 258 259 259 260 262 263 265 265 262 261 262 263 266 269 269 269 270 269 266 263 260 258 256 253 255 262 271 283 297 308
236 237 236 235 236 237 238 239 240 240 239 240 239 239 239 239 238 237 236 237 237 236 235 235 235 234 233 234 236 236 236 237 239 239 240 241 241 242 242 241 242 243 245 245 246 247 248 249 250 251 253 254 256 257 257 258 259 260 260 261 261 261 263 262 259 256 257 261 266 268 266 267 266 262 259 259 258 255 253 258 264 273 285 296 303
235 236 236 234 235 237 238 239 239 240 240 241 240 240 240 239 239 238 237 237 236 236 235 235 235 235 234 234 235 236 236 237 239 239 239 240 240 241 242 242 242 244 245 246 247 247 247 248 249 250 251 253 254 256 257 258 258 257 257 258 259 259 259 259 258 255 255 259 263 264 264 265 265 263 260 258 258 257 257 262 267 271 280 288 294
234 235 235 234 235 237 238 239 239 240 241 241 241 241 241 240 240 239 238 237 237 236 236 236 236 236 235 235 236 236 237 238 239 239 239 239 239 240 242 242 243 243 244 246 246 246 246 245 246 248 249 250 251 252 254 255 255 255 255 256 257 257 256 257 256 254 255 259 261 264 266 266 264 263 262 260 259 258 259 264 269 271 277 283 290
234 235 235 234 236 238 239 239 239 240 241 242 242 241 241 240 240 239 238 238 238 237 237 237 237 237 237 236 236 236 236 237 238 238 238 238 239 239 240 241 242 243 244 245 245 245 244 243 243 245 246 248 249 251 251 252 253 254 253 253 255 256 255 255 255 253 254 257 261 265 267 267 264 263 264 262 260 261 262 264 268 272 278 284 290
234 234 234 235 238 239 238 238 238 239 240 241 241 241 241 241 240 239 238 238 239 238 238 239 239 239 239 238 237 236 236 236 237 237 237 237 238 238 239 240 240 241 242 243 243 244 243 242 242 243 245 248 249 250 251 253 254 253 251 251 253 255 256 255 255 254 253 254 258 261 263 265 266 265 265 264 263 264 265 266 267 271 278 285 290
232 232 234 238 239 238 237 237 238 238 239 240 241 240 240 241 240 239 239 238 238 238 238 239 239 240 240 239 238 238 236 236 236 237 237 237 237 238 238 239 239 240 241 241 241 242 243 244 244 244 246 248 248 248 250 254 256 256 253 249 249 251 254 253 253 252 251 251 254 256 258 263 267 266 263 265 267 268 269 270 272 275 281 286 290
230 232 237 238 236 235 236 237 237 238 239 240 240 239 240 240 240 240 239 238 238 238 238 238 240 241 241 240 239 239 237 236 236 237 238 237 238 237 237 238 239 239 241 241 241 242 244 246 245 243 243 245 247 249 251 256 259 258 252 246 243 244 246 248 249 249 248 249 251 253 256 261 265 263 265 271 275 275 274 274 277 282 285 286 290
230 233 236 234 232 234 236 236 237 239 240 240 240 240 239 240 240 240 239 239 239 238 238 238 239 241 242 242 241 240 239 238 237 238 238 238 238 238 237 237 238 239 240 240 241 242 244 245 244 241 241 242 245 250 254 258 261 258 251 245 241 238 239 242 245 246 246 247 247 248 253 259 261 264 272 279 280 278 276 276 280 285 286 285 290
232 234 234 233 233 235 235 236 237 239 240 240 240 240 239 240 240 240 240 239 239 240 239 239 239 241 242 243 243 242 242 240 239 239 239 238 238 237 237 237 238 240 240 239 240 241 243 244 244 242 240 239 241 248 255 259 261 260 252 244 238 234 233 235 238 241 243 243 243 245 249 255 261 268 277 281 281 280 278 278 282 285 285 284 288
231 233 234 233 234 234 234 236 238 239 239 239 239 239 239 240 240 240 240 240 240 240 240 240 240 241 243 244 245 245 244 243 242 240 239 238 237 237 237 237 239 241 240 239 239 241 243 244 244 242 240 238 239 247 256 259 259 258 251 241 235 231 229 230 233 235 236 236 238 243 249 256 262 268 275 279 280 280 279 279 281 281 281 282 287
230 231 232 232 232 233 234 235 236 237 238 238 238 239 239 239 240 240 240 240 240 241 240 241 241 242 243 244 246 246 245 245 245 243 241 239 238 237 237 237 240 242 241 239 239 241 243 245 245 243 240 238 239 245 255 258 255 255 249 238 231 229 229 230 232 234 235 235 236 241 249 257 261 267 274 278 280 279 278 277 275 275 278 284 289
230 231 232 232 232 232 233 235 236 237 237 237 237 238 239 240 240 240 240 240 241 241 241 241 242 242 243 244 245 246 246 247 248 246 244 242 240 239 237 237 240 243 242 239 239 241 243 243 244 243 242 240 241 244 250 253 250 250 243 232 227 227 228 231 232 233 235 236 235 238 245 252 260 269 276 280 279 275 271 269 270 274 279 284 286
232 233 233 233 234 235 236 237 237 237 237 237 239 239 240 241 241 240 240 240 241 241 241 240 241 242 243 244 245 246 247 248 250 249 248 246 244 241 239 238 240 243 243 241 239 240 241 241 242 244 245 245 244 242 243 245 243 242 235 227 224 223 226 231 231 229 230 231 230 233 240 250 261 269 275 276 271 265 262 266 273 273 271 274 276
235 235 234 234 236 239 241 240 240 239 239 240 241 241 241 241 242 241 241 240 240 241 241 241 241 241 242 244 246 247 248 248 250 251 249 247 245 243 242 240 241 244 244 242 241 241 240 241 242 244 245 245 242 238 237 237 236 233 229 224 222 220 222 226 225 222 223 223 223 229 239 252 261 265 267 265 260 258 260 266 270 260 258 267 273
236 235 235 237 240 242 242 241 240 240 243 244 243 242 242 243 243 243 242 241 241 241 241 241 241 240 241 243 245 247 247 248 250 250 248 246 245 245 244 242 242 244 243 242 241 241 240 239 240 241 241 240 237 231 228 228 227 226 224 222 220 218 219 223 222 218 217 217 221 233 244 252 257 257 257 258 256 257 260 263 263 261 265 270 266
239 239 240 242 243 241 240 240 241 242 245 246 246 245 246 245 244 244 244 243 243 242 242 242 242 240 239 240 242 243 244 245 247 249 248 245 244 244 243 241 240 242 242 241 241 241 240 239 237 236 235 235 231 223 219 220 221 220 222 224 223 221 221 222 218 213 212 218 229 239 244 246 248 249 253 255 255 259 262 262 263 267 271 266 255
243 243 242 242 242 241 241 242 244 245 247 248 247 247 247 246 244 245 245 244 243 243 243 244 245 244 242 241 241 242 243 243 244 246 247 246 243 241 241 239 237 238 239 239 239 240 241 239 236 233 231 230 223 214 214 218 218 218 223 227 227 224 220 213 205 203 209 222 231 236 239 241 243 245 250 254 258 261 262 261 264 267 267 257 249
241 242 242 242 242 242 243 244 246 247 248 248 248 248 247 246 245 246 246 244 243 244 244 244 246 247 246 245 244 245 244 244 244 244 245 245 242 241 240 237 235 235 236 235 236 238 239 238 234 231 228 223 218 213 214 217 218 220 224 224 220 214 205 197 196 201 210 220 227 230 234 237 239 243 247 252 255 254 252 254 256 257 259 258 257
240 242 243 243 244 245 246 247 249 249 249 250 251 250 249 247 246 245 245 244 244 245 245 244 244 245 244 244 245 246 246 247 247 246 245 243 241 239 239 237 233 231 231 231 231 234 235 233 229 227 222 218 215 213 214 216 218 219 219 216 209 199 192 191 197 205 213 221 226 230 233 235 237 242 246 246 242 238 237 242 246 249 257 266 271
242 245 247 247 248 249 250 251 252 251 251 252 251 249 248 248 247 247 246 245 244 244 243 242 242 241 240 241 245 246 246 246 247 246 246 244 240 237 237 235 231 227 226 226 227 228 227 224 222 220 217 214 212 212 213 215 215 214 212 208 201 193 189 192 202 212 219 225 229 232 235 235 238 241 240 231 228 230 232 236 241 249 261 269 276
237 243 249 252 253 254 254 254 254 254 254 253 251 249 247 246 246 247 247 244 242 241 241 241 241 239 240 243 246 247 247 246 244 243 243 243 241 238 236 233 227 221 219 219 220 219 217 218 218 214 211 209 207 207 210 210 209 208 207 203 196 192 192 197 208 218 225 229 231 232 233 236 239 237 229 223 226 232 233 234 241 251 260 269 278
232 236 241 248 253 254 256 256 256 256 256 254 252 251 249 247 247 248 246 244 242 241 240 241 242 239 241 244 245 245 245 244 242 241 240 238 238 238 236 232 224 215 212 213 213 211 212 214 211 205 204 206 206 206 206 204 202 201 200 197 195 194 196 203 213 224 231 233 231 229 230 234 235 229 224 225 229 231 232 237 247 255 263 272 282
236 239 240 243 246 248 251 253 254 256 256 255 253 252 251 249 248 247 246 244 242 242 242 243 243 242 243 245 244 242 242 242 242 242 239 235 234 232 229 227 221 213 210 210 207 206 207 206 201 198 199 202 203 202 200 198 196 195 193 193 196 198 202 210 220 230 234 230 225 224 226 230 229 225 225 227 230 233 238 245 253 261 269 278 285
267 261 250 247 245 245 247 248 249 251 253 253 254 253 252 251 249 249 250 248 245 245 245 243 244 245 246 246 244 242 241 242 242 242 238 235 233 228 223 219 213 209 209 206 203 203 203 196 191 192 194 195 193 192 192 192 192 193 193 194 197 201 207 215 223 225 222 219 219 221 223 225 224 224 227 230 234 240 246 253 260 266 272 280 283
269 262 252 246 242 239 239 240 242 245 247 248 250 251 251 252 253 254 256 255 254 254 251 248 248 249 249 249 246 242 245 249 249 246 241 238 234 229 225 218 208 204 206 204 201 202 199 190 187 190 192 191 189 189 190 190 190 192 194 196 199 205 212 217 217 215 212 213 216 218 219 221 223 225 229 232 239 246 252 258 264 267 271 276 278
290 263 252 249 244 239 238 238 240 245 248 250 251 251 251 250 250 253 256 256 257 257 255 253 253 252 252 254 252 250 255 261 259 250 244 241 237 232 228 221 212 206 206 205 203 200 193 187 188 192 191 190 189 190 191 191 190 190 193 196 201 207 212 212 209 210 211 212 212 213 216 221 225 229 231 235 241 249 253 257 262 267 270 273 275
25 20 357 309 279 267 260 256 256 259 262 264 265 264 262 258 256 256 258 258 258 258 257 257 256 253 253 254 254 254 259 262 257 251 248 246 239 231 223 217 212 208 206 207 206 197 189 187 190 190 189 189 191 193 192 191 190 190 193 198 203 205 205 206 207 209 209 208 209 213 219 225 229 232 235 238 244 250 254 258 263 266 268 270 275
55 49 38 31 26 21 24 32 21 355 324 306 300 294 288 283 278 272 266 263 263 262 262 261 260 257 255 253 252 252 254 252 249 248 249 246 239 229 218 211 207 204 204 207 204 192 187 189 190 187 186 188 190 192 192 191 190 191 194 198 201 201 203 206 207 207 207 208 212 217 222 227 231 236 240 242 246 251 255 258 261 264 269 274 279
68 63 55 52 52 57 66 68 61 52 44 31 20 15 6 352 341 328 307 286 275 273 272 270 265 260 257 254 251 249 249 248 247 246 245 242 235 226 218 211 204 200 201 203 197 188 188 193 192 186 184 186 187 189 190 190 190 192 193 196 199 200 202 204 204 204 207 211 215 220 224 229 233 237 241 243 244 248 253 257 260 266 273 278 280
73 69 65 64 65 68 71 70 64 56 48 41 34 28 20 11 1 353 344 332 321 314 309 302 290 275 263 256 251 247 244 243 243 243 240 237 230 222 217 210 201 197 198 196 190 188 192 196 194 187 183 183 184 186 187 188 189 190 191 194 197 199 200 199 200 204 209 213 218 223 227 230 233 236 238 239 240 244 248 255 262 268 273 275 276
78 76 74 72 70 70 68 65 61 56 47 43 39 32 24 17 10 4 358 353 345 337 330 322 312 299 282 266 255 247 242 239 239 237 235 231 222 214 210 201 191 188 189 187 186 191 197 198 196 190 184 181 183 186 187 187 188 189 190 191 193 194 194 195 199 205 211 215 221 225 227 231 234 237 238 238 239 242 245 250 257 265 269 272 272
80 79 78 74 70 67 62 55 54 53 46 40 39 36 30 22 15 11 10 7 1 353 344 333 319 307 298 284 264 250 241 237 234 230 227 222 213 206 200 191 181 179 180 180 182 189 195 197 197 192 183 179 182 184 185 184 186 189 190 189 189 190 192 195 201 208 212 216 221 225 229 234 236 235 235 236 237 239 241 243 251 259 263 262 264
69 70 69 65 60 54 48 44 45 43 35 30 32 37 34 25 17 15 18 17 11 2 355 349 340 328 313 294 271 253 242 235 229 223 216 210 205 198 190 180 173 173 175 177 180 185 190 193 194 188 180 178 179 180 181 185 188 190 188 186 186 189 193 199 205 209 212 216 223 229 233 236 235 231 228 229 232 233 234 236 241 250 258 263 272
51 50 53 54 53 49 43 40 37 26 19 23 28 27 23 22 18 14 16 20 19 15 11 9 8 359 339 311 285 255 233 222 214 207 198 191 187 182 175 168 167 169 173 176 180 182 186 191 191 184 179 179 180 180 182 186 188 187 184 183 186 190 195 201 204 208 212 219 226 233 234 233 232 229 225 223 223 223 223 224 223 232 255 274 284
48 44 42 43 45 47 46 43 33 19 18 24 23 16 15 19 18 12 11 15 21 24 24 27 32 32 22 353 296 228 201 189 180 172 166 165 166 164 160 159 163 167 171 176 180 181 183 186 187 183 180 179 180 181 183 185 184 183 182 184 187 191 196 200 204 208 215 222 230 234 232 229 228 226 219 213 212 214 215 217 217 221 239 264 281
47 44 40 36 35 37 39 39 33 22 20 17 11 11 16 19 15 10 11 16 24 33 37 38 40 43 47 59 94 125 130 128 133 139 144 149 153 154 153 154 160 168 175 180 181 181 180 180 181 180 178 178 180 182 183 183 181 181 183 186 190 194 198 202 206 212 219 226 231 232 228 224 222 219 214 210 210 212 215 219 223 232 247 261 276
37 38 35 31 30 28 28 31 31 22 14 8 7 11 17 21 19 16 18 23 29 38 49 58 58 54 52 58 73 88 97 102 112 124 133 139 143 145 149 157 166 176 181 182 180 178 177 176 177 178 177 179 181 182 181 180 180 181 184 186 190 194 197 202 209 216 223 227 227 223 219 217 215 214 214 215 215 216 218 220 223 239 257 270 281
32 29 22 22 24 22 20 22 22 14 5 1 360 360 6 15 19 14 18 34 41 36 42 65 80 81 73 56 43 49 72 92 104 117 129 136 139 144 155 165 173 179 182 181 178 176 176 176 177 179 179 180 181 179 177 178 180 181 183 186 189 194 200 207 215 221 224 222 219 215 214 215 214 214 217 222 221 218 218 218 224 239 257 270 281
37 31 20 18 19 14 12 13 12 8 4 358 349 347 356 6 14 10 11 32 46 37 30 49 78 98 104 100 84 70 89 105 118 135 144 150 154 158 162 168 172 176 180 180 178 177 177 178 179 180 180 179 177 176 176 178 180 181 184 187 192 198 206 213 220 223 221 218 217 217 217 217 217 219 225 227 222 215 214 219 230 246 260 270 279
32 27 24 24 18 7 3 5 3 0 359 354 342 334 333 338 347 357 3 19 37 35 33 43 61 100 120 115 103 102 128 147 158 159 157 160 165 167 168 169 171 174 177 178 178 179 181 181 180 178 176 175 174 175 177 179 181 183 186 190 196 204 212 217 222 223 220 218 219 220 219 218 219 224 230 231 223 213 212 222 235 247 258 266 271
27 22 17 17 12 359 350 346 345 348 352 351 345 336 321 314 317 322 323 340 30 37 41 54 63 101 136 140 140 142 147 158 174 178 173 172 173 174 173 172 172 172 173 174 176 179 182 181 175 171 170 171 172 174 176 178 180 184 188 192 198 205 211 216 221 222 219 217 217 216 217 219 222 225 227 228 222 212 209 220 234 244 251 255 260
26 23 19 16 13 5 356 349 341 339 343 339 329 323 313 299 295 298 302 303 302 315 325 163 173 179 173 184 207 204 184 177 180 183 182 179 176 176 175 173 170 169 169 170 172 175 175 173 168 167 168 169 171 173 176 177 179 182 186 188 193 200 208 215 220 219 216 215 214 214 217 221 225 225 224 222 221 217 216 219 226 231 235 241 253
32 29 26 22 20 16 12 8 1 356 350 334 312 310 313 305 291 283 282 275 258 252 257 241 216 201 201 214 225 225 208 191 182 179 178 175 173 175 175 170 164 163 163 164 166 167 167 166 167 167 168 170 173 175 177 176 177 178 179 180 187 198 209 217 221 219 216 215 215 218 222 225 227 228 226 223 223 224 221 218 217 218 222 233 254
45 42 38 35 33 31 29 26 21 16 9 357 340 332 330 324 309 295 288 281 268 255 260 257 242 224 217 218 221 221 212 193 176 168 167 166 166 168 165 159 156 157 157 158 160 161 162 164 166 168 171 174 177 178 176 174 173 172 168 167 175 190 205 214 218 219 218 218 220 224 228 229 228 228 227 224 224 223 218 212 212 214 217 231 254
48 47 43 40 38 37 35 33 32 30 25 16 6 360 357 353 342 324 309 297 284 269 261 256 249 238 222 212 207 198 182 168 161 161 161 159 158 157 154 153 156 159 159 158 159 160 162 165 168 171 175 178 178 177 175 173 170 165 159 153 152 160 177 195 207 213 217 219 222 225 226 225 223 222 221 219 217 215 211 209 209 211 218 232 251
47 47 45 41 38 36 35 33 33 34 33 29 21 15 13 13 9 358 343 329 316 292 259 237 233 224 174 158 163 163 156 152 156 160 158 153 152 153 152 154 158 161 162 163 162 163 164 167 169 173 177 178 177 176 176 174 168 162 153 138 122 112 117 145 179 196 204 207 209 210 210 210 210 211 214 214 213 211 211 212 213 214 219 231 244
49 48 46 43 39 37 35 34 34 35 35 35 34 33 30 29 26 18 8 0 354 337 269 222 208 188 160 152 155 158 156 155 159 163 161 159 159 159 159 160 162 163 165 166 167 167 168 169 170 174 177 177 176 177 179 177 171 165 154 136 117 97 91 103 135 168 184 191 192 191 191 193 196 200 205 210 212 214 216 217 217 218 220 225 234
Height
1484 1487 1491 1494 1496 1499 1503 1506 1509 1512 1514 1516 1518 1520 1522 1524 1527 1529 1530 1532 1534 1536 1538 1539 1541 1542 1544 1545 1546 1548 1549 1550 1551 1552 1554 1555 1556 1557 1558 1560 1561 1562 1564 1565 1566 1567 1568 1569 1571 1572 1574 1574 1575 1576 1576 1577 1577 1578 1579 1579 1579 1580 1581 1581 1581 1582 1582 1582 1583 1582 1582 1582 1581 1581 1581 1581 1581 1581 1580 1580 1580 1580 1580 1580 1580
1479 1482 1486 1489 1491 1494 1498 1501 1504 1507 1509 1512 1513 1516 1518 1520 1523 1525 1526 1528 1530 1532 1534 1536 1537 1538 1540 1541 1542 1544 1546 1547 1548 1549 1550 1552 1553 1554 1555 1557 1558 1559 1561 1562 1563 1565 1566 1567 1569 1570 1571 1572 1573 1573 1574 1574 1575 1575 1576 1577 1577 1577 1578 1579 1579 1579 1580 1580 1580 1580 1580 1580 1580 1580 1579 1579 1579 1579 1579 1578 1578 1578 1578 1578 1578
1474 1477 1481 1484 1486 1490 1493 1496 1498 1501 1504 1506 1508 1511 1513 1516 1518 1520 1522 1524 1526 1528 1530 1531 1533 1534 1535 1536 1538 1540 1542 1543 1544 1545 1547 1549 1550 1551 1552 1553 1555 1556 1557 1559 1560 1562 1564 1565 1567 1568 1569 1570 1570 1571 1571 1572 1572 1573 1573 1574 1575 1575 1575 1576 1576 1577 1577 1577 1577 1577 1577 1577 1578 1578 1578 1577 1577 1577 1577 1577 1577 1577 1577 1576 1576
1470 1472 1476 1479 1482 1485 1488 1490 1493 1496 1498 1501 1503 1506 1509 1511 1513 1515 1518 1520 1521 1523 1525 1527 1528 1530 1531 1531 1533 1535 1537 1539 1540 1542 1543 1545 1546 1548 1549 1550 1552 1553 1554 1556 1557 1559 1561 1563 1565 1566 1567 1567 1567 1568 1569 1569 1569 1570 1570 1571 1572 1572 1572 1573 1573 1574 1574 1574 1574 1575 1575 1575 1575 1576 1576 1576 1576 1576 1575 1575 1575 1575 1575 1575 1574
1464 1467 1471 1475 1477 1480 1482 1485 1488 1490 1493 1495 1498 1502 1504 1506 1509 1511 1513 1515 1517 1519 1521 1522 1523 1524 1525 1527 1528 1530 1532 1535 1536 1538 1540 1541 1543 1544 1546 1547 1548 1550 1551 1553 1554 1556 1558 1560 1562 1563 1563 1564 1564 1564 1565 1566 1566 1566 1567 1567 1568 1569 1569 1569 1570 1570 1571 1571 1572 1573 1573 1573 1573 1574 1574 1574 1574 1574 1574 1573 1573 1573 1573 1572 1572
1459 1462 1466 1470 1472 1474 1477 1479 1482 1484 1488 1490 1493 1497 1499 1502 1504 1506 1508 1510 1512 1514 1516 1517 1518 1519 1521 1522 1524 1526 1528 1530 1532 1534 1536 1537 1539 1541 1542 1544 1545 1547 1548 1549 1551 1553 1555 1557 1558 1559 1559 1559 1559 1560 1561 1561 1562 1562 1563 1564 1565 1565 1565 1565 1566 1567 1568 1568 1569 1570 1570 1571 1571 1571 1571 1571 1572 1572 1571 1571 1571 1571 1570 1570 1569
1455 1458 1461 1465 1467 1468 1471 1474 1476 1479 1482 1485 1489 1491 1494 1497 1498 1500 1503 1505 1506 1509 1510 1512 1513 1514 1516 1518 1519 1521 1523 1525 1527 1529 1531 1533 1535 1537 1538 1540 1542 1543 1544 1545 1547 1549 1551 1552 1553 1554 1554 1554 1554 1555 1556 1557 1557 1558 1559 1560 1561 1562 1562 1562 1563 1563 1564 1565 1566 1567 1568 1568 1569 1569 1569 1569 1569 1569 1569 1569 1568 1568 1568 1567 1567
1450 1453 1456 1459 1460 1462 1466 1469 1472 1475 1478 1480 1483 1486 1488 1491 1493 1496 1498 1499 1501 1503 1505 1507 1508 1509 1511 1513 1515 1517 1519 1520 1522 1524 1526 1528 1530 1532 1534 1536 1538 1539 1540 1541 1543 1545 1546 1548 1549 1549 1549 1549 1550 1551 1552 1553 1553 1554 1555 1557 1558 1559 1560 1560 1560 1561 1561 1562 1563 1564 1564 1565 1566 1566 1566 1566 1567 1566 1566 1566 1566 1565 1565 1564 1564
1445 1449 1451 1452 1454 1457 1461 1465 1467 1470 1473 1475 1478 1481 1483 1486 1488 1490 1493 1494 1497 1499 1501 1503 1503 1504 1506 1509 1510 1512 1513 1515 1517 1519 1521 1524 1526 1528 1530 1532 1533 1535 1536 1537 1539 1541 1542 1544 1544 1544 1544 1545 1546 1547 1548 1549 1550 1551 1552 1554 1555 1556 1557 1558 1558 1558 1559 1559 1560 1561 1562 1562 1562 1563 1564 1563 1564 1563 1563 1563 1563 1562 1562 1561 1561
1440 1443 1444 1446 1449 1453 1457 1460 1462 1465 1467 1470 1473 1476 1478 1481 1483 1485 1487 1490 1492 1494 1496 1497 1498 1500 1502 1504 1505 1506 1508 1509 1511 1514 1517 1519 1522 1524 1526 1527 1529 1530 1531 1533 1535 1536 1538 1540 1540 1541 1541 1541 1543 1543 1544 1545 1546 1548 1549 1550 1551 1553 1554 1555 1555 1555 1556 1556 1557 1558 1559 1559 1560 1561 1561 1561 1561 1561 1561 1560 1560 1560 1560 1558 1558
1435 1437 1438 1441 1446 1449 1452 1455 1457 1459 1462 1465 1467 1470 1473 1476 1478 1480 1483 1485 1487 1489 1491 1492 1494 1496 1497 1499 1500 1501 1502 1504 1507 1509 1512 1515 1517 1519 1521 1523 1525 1525 1527 1529 1531 1532 1534 1536 1536 1537 1537 1537 1539 1540 1540 1541 1543 1544 1545 1546 1547 1548 1549 1551 1551 1552 1553 1553 1554 1555 1556 1557 1557 1558 1558 1558 1558 1558 1558 1557 1557 1557 1556 1555 1555
1429 1431 1434 1438 1442 1445 1447 1450 1452 1455 1457 1459 1462 1465 1469 1471 1473 1475 1477 1480 1482 1484 1486 1488 1489 1491 1492 1494 1495 1496 1497 1499 1502 1505 1507 1510 1513 1515 1517 1519 1520 1520 1522 1524 1527 1529 1530 1531 1531 1532 1533 1534 1536 1537 1537 1538 1539 1540 1541 1541 1542 1543 1545 1546 1548 1549 1550 1550 1551 1552 1553 1554 1555 1555 1556 1555 1555 1555 1554 1554 1554 1553 1553 1553 1552
1425 1427 1430 1434 1437 1439 1443 1445 1447 1450 1451 1454 1457 1461 1463 1466 1467 1470 1472 1475 1477 1479 1481 1483 1485 1486 1487 1489 1490 1492 1493 1495 1498 1500 1503 1506 1508 1511 1513 1514 1515 1515 1517 1520 1523 1525 1526 1526 1527 1528 1529 1531 1532 1533 1533 1534 1535 1536 1537 1537 1538 1539 1540 1542 1543 1545 1546 1547 1548 1549 1551 1552 1552 1553 1553 1553 1552 1552 1551 1551 1550 1550 1550 1549 1549
1421 1423 1426 1429 1432 1435 1438 1440 1442 1445 1447 1450 1453 1455 1458 1460 1462 1465 1467 1470 1472 1474 1476 1478 1480 1482 1483 1484 1486 1487 1488 1490 1492 1495 1498 1501 1504 1506 1508 1510 1510 1511 1513 1516 1519 1520 1521 1521 1522 1524 1525 1527 1529 1529 1530 1531 1532 1532 1533 1533 1534 1534 1535 1537 1539 1541 1542 1544 1545 1547 1548 1549 1550 1550 1550 1550 1549 1549 1548 1547 1547 1547 1547 1546 1546
1418 1420 1423 1425 1428 1431 1433 1436 1438 1440 1443 1446 1448 1450 1453 1455 1457 1460 1462 1465 1467 1469 1471 1473 1475 1476 1478 1479 1481 1482 1483 1485 1487 1490 1493 1497 1500 1503 1504 1506 1506 1506 1509 1512 1515 1515 1516 1517 1518 1520 1521 1523 1525 1526 1527 1527 1528 1528 1528 1529 1530 1531 1532 1533 1535 1537 1538 1540 1542 1544 1545 1546 1547 1547 1547 1547 1546 1545 1545 1545 1545 1544 1544 1543 1543
1415 1417 1420 1422 1425 1428 1430 1433 1435 1437 1440 1442 1444 1446 1448 1450 1452 1455 1457 1460 1462 1463 1465 1467 1469 1470 1472 1473 1474 1475 1478 1480 1481 1485 1489 1493 1496 1499 1500 1501 1502 1502 1505 1508 1510 1511 1511 1512 1514 1515 1517 1519 1521 1523 1524 1524 1524 1524 1525 1526 1527 1528 1529 1530 1531 1533 1535 1537 1539 1541 1542 1544 1544 1544 1544 1543 1543 1543 1542 1542 1542 1542 1541 1541 1541
1411 1413 1416 1418 1421 1424 1428 1430 1432 1434 1436 1438 1439 1441 1443 1445 1447 1450 1452 1454 1455 1457 1459 1461 1463 1464 1466 1467 1468 1470 1473 1475 1476 1480 1484 1488 1492 1494 1495 1497 1498 1499 1501 1504 1506 1507 1507 1508 1510 1511 1513 1515 1517 1519 1520 1520 1520 1520 1521 1523 1524 1525 1526 1527 1528 1531 1532 1534 1536 1538 1539 1540 1541 1541 1541 1540 1540 1540 1540 1539 1539 1539 1540 1540 1540
1407 1409 1411 1414 1418 1421 1423 1425 1427 1430 1431 1432 1434 1436 1438 1441 1442 1444 1446 1448 1449 1451 1453 1455 1457 1459 1460 1461 1463 1465 1468 1470 1471 1474 1478 1483 1486 1488 1491 1494 1495 1495 1497 1500 1501 1502 1503 1504 1505 1507 1509 1510 1512 1514 1515 1516 1516 1516 1518 1519 1520 1522 1524 1525 1526 1528 1529 1531 1533 1535 1536 1537 1537 1537 1538 1537 1537 1537 1537 1537 1537 1538 1538 1538 1538
1403 1406 1409 1412 1415 1417 1419 1420 1423 1425 1426 1427 1430 1432 1434 1436 1438 1440 1442 1443 1444 1446 1448 1449 1451 1452 1453 1455 1457 1459 1461 1463 1465 1467 1471 1476 1479 1483 1486 1489 1490 1491 1493 1495 1496 1497 1498 1500 1501 1503 1505 1507 1509 1510 1511 1511 1512 1513 1515 1516 1517 1519 1520 1522 1524 1525 1527 1528 1530 1532 1533 1534 1534 1534 1534 1535 1535 1535 1534 1535 1535 1535 1535 1535 1536
1402 1405 1408 1410 1413 1414 1415 1417 1418 1420 1422 1424 1426 1428 1430 1432 1434 1436 1438 1439 1440 1442 1443 1443 1444 1444 1446 1447 1449 1451 1453 1455 1457 1459 1464 1468 1472 1476 1479 1482 1484 1486 1488 1490 1491 1492 1493 1495 1497 1499 1501 1503 1504 1506 1506 1507 1508 1510 1511 1512 1513 1515 1518 1520 1522 1523 1525 1526 1528 1529 1530 1530 1531 1531 1532 1532 1532 1532 1532 1532 1532 1532 1532 1533 1534
1401 1403 1405 1407 1409 1410 1412 1413 1415 1417 1419 1421 1423 1425 1427 1429 1430 1431 1432 1434 1435 1436 1437 1438 1438 1439 1440 1442 1443 1444 1445 1448 1450 1453 1456 1461 1465 1468 1470 1473 1476 1480 1482 1485 1486 1486 1487 1490 1492 1495 1497 1498 1500 1501 1502 1503 1504 1506 1508 1509 1511 1513 1515 1517 1520 1521 1523 1524 1525 1526 1527 1527 1528 1529 1529 1529 1529 1529 1529 1529 1530 1530 1530 1531 1531
1398 1400 1402 1403 1405 1407 1408 1410 1412 1414 1416 1417 1419 1420 1422 1424 1426 1427 1428 1429 1430 1431 1432 1433 1434 1435 1437 1439 1440 1441 1443 1444 1446 1447 1449 1453 1457 1460 1461 1464 1469 1473 1475 1478 1479 1480 1483 1485 1488 1490 1492 1494 1495 1496 1498 1499 1501 1503 1505 1506 1509 1511 1513 1515 1518 1519 1521 1522 1523 1523 1524 1524 1525 1526 1526 1527 1527 1527 1527 1527 1527 1528 1528 1529 1529
1396 1398 1399 1401 1402 1404 1405 1407 1409 1411 1412 1413 1414 1416 1418 1419 1420 1422 1424 1425 1426 1426 1427 1428 1429 1431 1433 1435 1435 1437 1440 1441 1441 1443 1444 1446 1449 1452 1455 1458 1462 1465 1468 1470 1473 1475 1478 1481 1484 1486 1488 1489 1491 1492 1494 1496 1497 1500 1502 1504 1506 1508 1511 1513 1515 1517 1518 1519 1520 1521 1521 1521 1522 1523 1524 1524 1524 1524 1524 1525 1525 1525 1526 1526 1527
1393 1395 1396 1398 1400 1402 1403 1405 1406 1407 1408 1410 1412 1413 1415 1416 1417 1418 1419 1420 1422 1423 1423 1423 1424 1425 1427 1428 1428 1430 1432 1433 1433 1436 1438 1441 1443 1445 1447 1451 1455 1459 1461 1464 1468 1471 1474 1477 1479 1482 1483 1485 1487 1488 1490 1492 1494 1496 1498 1500 1503 1505 1508 1510 1512 1514 1515 1516 1517 1518 1518 1519 1520 1520 1521 1521 1521 1521 1522 1522 1523 1523 1524 1524 1525
1391 1392 1394 1396 1397 1399 1400 1402 1403 1404 1406 1407 1408 1410 1411 1413 1414 1415 1415 1417 1418 1419 1419 1419 1419 1419 1420 1420 1419 1420 1422 1423 1425 1426 1430 1435 1439 1440 1442 1445 1448 1452 1455 1458 1462 1466 1469 1472 1475 1478 1479 1481 1483 1485 1487 1489 1491 1493 1495 1497 1500 1502 1504 1507 1509 1511 1512 1513 1514 1515 1515 1516 1517 1517 1518 1518 1519 1519 1520 1520 1521 1521 1522 1522 1522
1389 1390 1392 1393 1395 1396 1398 1399 1401 1402 1403 1405 1405 1407 1408 1409 1410 1411 1412 1413 1413 1413 1414 1415 1415 1415 1414 1412 1411 1412 1414 1415 1417 1419 1422 1427 1432 1436 1439 1441 1443 1446 1449 1453 1457 1461 1465 1468 1470 1472 1474 1477 1479 1482 1484 1486 1489 1491 1494 1496 1498 1500 1501 1503 1506 1508 1509 1510 1511 1512 1512 1513 1514 1514 1515 1516 1516 1517 1517 1518 1518 1519 1519 1520 1520
1388 1389 1390 1391 1393 1394 1395 1397 1398 1399 1400 1402 1402 1404 1405 1406 1407 1407 1408 1408 1409 1409 1410 1410 1411 1412 1411 1409 1409 1411 1411 1410 1411 1413 1415 1419 1423 1428 1432 1436 1439 1441 1443 1446 1450 1454 1459 1463 1465 1467 1470 1474 1477 1480 1482 1484 1486 1488 1491 1494 1496 1498 1499 1501 1503 1505 1506 1507 1508 1509 1509 1510 1511 1512 1512 1513 1514 1515 1515 1515 1516 1516 1516 1517 1517
1387 1388 1389 1390 1391 1391 1392 1394 1395 1396 1397 1398 1399 1400 1401 1402 1402 1402 1402 1402 1404 1404 1404 1405 1405 1405 1406 1407 1408 1409 1407 1405 1404 1405 1407 1410 1415 1421 1425 1427 1430 1433 1436 1439 1443 1448 1452 1456 1459 1462 1466 1469 1473 1476 1479 1481 1482 1485 1487 1490 1493 1495 1497 1498 1500 1501 1503 1504 1505 1505 1506 1507 1508 1509 1510 1510 1511 1512 1512 1513 1513 1513 1514 1514 1514
1385 1386 1386 1387 1388 1389 1389 1390 1391 1392 1393 1394 1395 1396 1397 1398 1398 1398 1397 1398 1399 1399 1400 1400 1400 1399 1400 1402 1403 1402 1399 1397 1398 1400 1402 1405 1411 1418 1423 1422 1421 1424 1428 1433 1437 1441 1445 1448 1451 1455 1460 1464 1467 1471 1474 1476 1478 1480 1484 1487 1490 1492 1494 1495 1497 1498 1500 1501 1502 1503 1504 1505 1505 1506 1507 1508 1508 1509 1509 1510 1510 1511 1511 1511 1512
1382 1383 1384 1385 1385 1386 1386 1387 1388 1389 1389 1390 1391 1391 1392 1393 1394 1394 1394 1394 1395 1395 1394 1394 1395 1395 1395 1395 1395 1393 1390 1390 1393 1395 1396 1399 1404 1410 1417 1422 1422 1422 1424 1428 1431 1434 1437 1441 1444 1448 1453 1457 1461 1465 1468 1471 1473 1476 1480 1483 1486 1488 1491 1493 1494 1496 1497 1498 1499 1500 1501 1502 1503 1503 1504 1505 1506 1506 1507 1507 1507 1508 1508 1509 1509
1380 1381 1382 1383 1383 1384 1384 1385 1386 1387 1387 1387 1387 1387 1388 1389 1390 1390 1390 1389 1389 1390 1389 1388 1388 1388 1388 1387 1386 1384 1382 1384 1387 1387 1387 1390 1394 1397 1403 1410 1415 1418 1421 1424 1426 1427 1429 1432 1436 1441 1446 1451 1455 1460 1463 1466 1469 1473 1477 1481 1483 1484 1487 1490 1491 1493 1495 1496 1497 1498 1499 1500 1500 1501 1502 1503 1503 1504 1504 1504 1504 1505 1505 1506 1506
1380 1380 1381 1381 1381 1382 1383 1383 1384 1385 1385 1385 1385 1385 1385 1384 1385 1386 1385 1385 1384 1383 1383 1382 1381 1380 1379 1379 1377 1376 1374 1375 1377 1379 1381 1384 1387 1391 1394 1396 1400 1407 1414 1418 1420 1422 1424 1427 1430 1434 1439 1445 1450 1455 1459 1462 1466 1469 1473 1477 1480 1482 1484 1487 1489 1491 1493 1494 1495 1496 1497 1497 1498 1498 1499 1500 1501 1501 1501 1501 1501 1502 1502 1503 1503
1380 1380 1381 1381 1381 1381 1382 1382 1383 1383 1384 1384 1383 1382 1382 1381 1380 1380 1379 1379 1379 1378 1376 1375 1372 1370 1369 1368 1366 1365 1365 1365 1367 1370 1373 1377 1382 1388 1391 1390 1393 1399 1405 1411 1418 1423 1427 1430 1431 1431 1434 1439 1445 1451 1455 1459 1462 1466 1470 1473 1477 1480 1482 1485 1487 1489 1491 1492 1494 1494 1495 1495 1496 1496 1497 1497 1498 1499 1499 1498 1498 1499 1499 1500 1500
1381 1381 1382 1382 1382 1383 1383 1383 1383 1383 1383 1383 1381 1380 1380 1378 1377 1376 1374 1373 1372 1370 1368 1366 1363 1360 1356 1354 1353 1353 1352 1354 1356 1360 1364 1369 1376 1382 1386 1388 1391 1394 1398 1405 1415 1423 1428 1433 1435 1431 1431 1435 1442 1447 1452 1457 1460 1464 1468 1471 1474 1477 1480 1482 1485 1487 1489 1490 1491 1492 1492 1493 1493 1494 1494 1495 1495 1496 1496 1496 1495 1496 1496 1497 1498
1383 1383 1383 1383 1384 1384 1384 1384 1384 1383 1383 1382 1381 1380 1379 1378 1377 1375 1373 1371 1368 1365 1361 1357 1354 1350 1346 1341 1339 1339 1340 1340 1342 1347 1353 1360 1365 1371 1376 1380 1384 1388 1393 1400 1410 1418 1426 1433 1436 1433 1430 1433 1438 1444 1449 1453 1458 1462 1465 1468 1471 1474 1477 1479 1482 1484 1486 1488 1489 1489 1490 1491 1491 1492 1492 1492 1493 1493 1493 1493 1493 1493 1494 1495 1496
1384 1384 1384 1384 1385 1385 1385 1385 1384 1383 1383 1381 1380 1379 1378 1377 1376 1375 1373 1371 1368 1363 1357 1350 1343 1338 1333 1328 1325 1325 1325 1326 1328 1333 1341 1349 1355 1360 1365 1370 1374 1381 1390 1397 1403 1411 1420 1429 1434 1432 1430 1431 1436 1441 1446 1451 1456 1460 1463 1465 1468 1471 1474 1477 1480 1482 1484 1485 1486 1487 1488 1488 1489 1489 1489 1489 1490 1490 1490 1490 1490 1490 1491 1493 1494
1386 1385 1385 1385 1386 1386 1386 1385 1384 1384 1383 1382 1380 1379 1378 1377 1376 1375 1373 1370 1367 1362 1354 1343 1332 1323 1317 1312 1309 1308 1309 1312 1315 1320 1328 1338 1347 1354 1360 1366 1373 1380 1387 1394 1400 1407 1416 1425 1429 1429 1428 1430 1434 1439 1444 1449 1454 1457 1460 1463 1466 1469 1472 1475 1477 1479 1481 1482 1483 1484 1485 1486 1486 1487 1487 1487 1487 1487 1487 1486 1486 1487 1488 1490 1491
1387 1386 1386 1386 1386 1386 1385 1385 1384 1384 1383 1382 1380 1379 1378 1376 1375 1374 1373 1371 1367 1362 1354 1344 1333 1321 1311 1302 1296 1294 1297 1300 1302 1310 1321 1331 1341 1351 1359 1367 1375 1381 1387 1395 1402 1407 1415 1423 1427 1426 1426 1428 1433 1438 1443 1447 1452 1455 1458 1461 1464 1467 1470 1473 1475 1477 1478 1479 1480 1482 1483 1484 1484 1483 1484 1484 1484 1484 1483 1483 1484 1485 1486 1487 1488
1388 1387 1387 1387 1386 1386 1385 1385 1384 1384 1382 1381 1380 1378 1377 1376 1375 1375 1374 1372 1368 1363 1357 1350 1340 1327 1315 1303 1294 1294 1298 1295 1287 1294 1313 1329 1341 1352 1361 1369 1377 1383 1389 1396 1402 1406 1412 1419 1424 1424 1424 1426 1431 1437 1441 1445 1449 1452 1455 1458 1462 1464 1467 1470 1472 1473 1474 1475 1477 1479 1480 1481 1481 1480 1481 1481 1481 1481 1480 1480 1481 1483 1484 1485 1486
1388 1388 1388 1387 1386 1386 1385 1385 1384 1383 1382 1381 1380 1378 1377 1376 1376 1375 1375 1373 1370 1364 1359 1354 1347 1337 1330 1324 1317 1316 1320 1314 1302 1303 1319 1335 1347 1357 1365 1369 1376 1385 1391 1396 1401 1404 1408 1414 1419 1422 1423 1426 1430 1435 1439 1443 1447 1450 1454 1457 1459 1462 1465 1467 1469 1470 1471 1472 1474 1476 1477 1478 1478 1478 1478 1478 1478 1477 1476 1476 1478 1479 1481 1483 1484
1389 1388 1388 1387 1387 1386 1385 1384 1383 1382 1381 1380 1379 1378 1378 1377 1377 1377 1376 1374 1371 1367 1362 1357 1353 1349 1349 1348 1342 1339 1340 1339 1335 1335 1342 1348 1355 1363 1369 1373 1379 1387 1392 1397 1401 1404 1408 1412 1416 1420 1422 1426 1430 1434 1438 1442 1446 1449 1452 1455 1458 1460 1463 1464 1466 1467 1468 1469 1471 1473 1475 1475 1475 1475 1475 1475 1474 1473 1473 1473 1475 1476 1478 1480 1481
1389 1389 1388 1387 1387 1386 1385 1384 1383 1382 1381 1380 1379 1379 1379 1378 1378 1378 1377 1375 1373 1371 1367 1363 1359 1357 1356 1357 1356 1354 1354 1355 1356 1357 1360 1362 1365 1369 1373 1378 1384 1390 1395 1400 1403 1405 1408 1411 1415 1419 1422 1425 1429 1433 1437 1441 1444 1447 1450 1453 1455 1458 1460 1462 1463 1463 1465 1466 1469 1471 1472 1472 1472 1472 1472 1472 1471 1470 1469 1470 1472 1474 1476 1477 1478
1390 1389 1389 1388 1386 1385 1384 1383 1383 1382 1381 1380 1380 1379 1379 1379 1379 1379 1378 1377 1374 1372 1371 1369 1366 1364 1362 1362 1364 1364 1364 1364 1366 1367 1368 1369 1371 1374 1377 1383 1388 1393 1398 1402 1405 1407 1409 1411 1414 1419 1423 1426 1429 1433 1437 1440 1443 1445 1448 1450 1453 1455 1457 1459 1460 1460 1462 1464 1466 1468 1469 1469 1469 1469 1469 1469 1468 1467 1466 1467 1469 1471 1473 1474 1475
1390 1389 1389 1388 1386 1385 1384 1383 1382 1382 1381 1381 1380 1379 1379 1379 1379 1379 1378 1377 1376 1374 1372 1371 1370 1369 1369 1369 1369 1370 1370 1370 1371 1372 1372 1374 1376 1378 1382 1386 1390 1395 1400 1403 1405 1408 1410 1412 1415 1419 1423 1427 1431 1435 1437 1440 1442 1444 1446 1448 1451 1453 1455 1456 1457 1458 1459 1462 1464 1465 1466 1466 1466 1466 1466 1466 1465 1464 1464 1465 1466 1468 1470 1471 1472
1389 1389 1388 1387 1386 1384 1383 1382 1382 1382 1381 1381 1380 1380 1379 1379 1379 1379 1379 1378 1376 1375 1374 1373 1372 1372 1372 1372 1373 1374 1374 1375 1375 1376 1377 1378 1380 1384 1387 1390 1393 1396 1399 1402 1405 1407 1410 1413 1416 1420 1424 1428 1432 1434 1437 1439 1440 1442 1445 1447 1449 1451 1452 1453 1454 1455 1457 1459 1461 1462 1463 1463 1463 1463 1463 1463 1462 1461 1462 1462 1464 1465 1467 1468 1469
1389 1388 1387 1386 1385 1383 1382 1382 1381 1381 1381 1380 1379 1379 1379 1379 1379 1379 1379 1378 1377 1376 1376 1375 1374 1373 1373 1374 1374 1376 1376 1377 1378 1380 1381 1383 1385 1388 1390 1392 1394 1396 1399 1402 1404 1407 1410 1414 1418 1421 1425 1428 1431 1433 1435 1437 1439 1441 1443 1445 1446 1448 1449 1450 1452 1453 1455 1457 1458 1459 1460 1460 1460 1460 1460 1460 1460 1459 1459 1460 1461 1463 1464 1465 1467
1388 1387 1386 1385 1384 1383 1382 1382 1381 1381 1380 1380 1379 1378 1379 1379 1380 1379 1379 1378 1378 1377 1377 1377 1377 1376 1376 1376 1376 1377 1378 1379 1380 1382 1384 1385 1387 1389 1391 1392 1394 1397 1400 1402 1405 1408 1412 1416 1419 1423 1425 1428 1430 1432 1434 1436 1438 1439 1441 1443 1444 1446 1447 1448 1449 1451 1452 1454 1455 1456 1457 1457 1457 1457 1457 1457 1457 1457 1457 1458 1459 1460 1462 1463 1464
1388 1387 1386 1385 1384 1383 1382 1382 1382 1381 1380 1379 1379 1378 1379 1379 1380 1380 1379 1379 1379 1379 1378 1378 1378 1378 1378 1377 1377 1377 1379 1380 1382 1383 1385 1387 1389 1392 1394 1396 1397 1399 1402 1404 1407 1410 1414 1417 1421 1424 1426 1427 1429 1431 1433 1435 1437 1438 1440 1441 1443 1444 1445 1446 1447 1448 1450 1451 1452 1453 1454 1454 1454 1454 1454 1454 1455 1455 1455 1456 1457 1458 1459 1460 1461
1389 1387 1386 1386 1385 1384 1384 1383 1382 1382 1381 1380 1379 1379 1379 1379 1380 1380 1379 1380 1380 1379 1379 1379 1379 1379 1379 1379 1378 1378 1379 1381 1383 1385 1387 1389 1393 1395 1396 1398 1400 1402 1404 1407 1410 1412 1416 1419 1421 1424 1425 1427 1429 1431 1432 1434 1436 1437 1439 1440 1441 1442 1443 1444 1445 1446 1447 1449 1449 1450 1451 1451 1451 1451 1452 1452 1453 1454 1454 1455 1455 1456 1457 1458 1459
1389 1388 1387 1387 1386 1386 1385 1385 1384 1383 1382 1381 1380 1380 1379 1379 1379 1379 1379 1380 1380 1380 1380 1380 1380 1380 1380 1380 1380 1381 1381 1382 1384 1386 1388 1391 1394 1396 1397 1399 1401 1403 1406 1408 1411 1413 1416 1419 1421 1423 1425 1427 1429 1431 1432 1434 1435 1437 1438 1439 1440 1441 1442 1443 1444 1444 1445 1446 1447 1448 1449 1449 1449 1450 1450 1451 1452 1452 1453 1453 1454 1454 1455 1455 1456
1391 1389 1389 1388 1388 1388 1387 1387 1386 1385 1384 1383 1382 1381 1380 1380 1380 1380 1380 1379 1379 1379 1379 1379 1380 1381 1381 1382 1382 1383 1384 1384 1386 1388 1390 1392 1395 1397 1398 1400 1402 1404 1407 1409 1411 1414 1416 1418 1421 1423 1425 1427 1429 1431 1432 1434 1435 1436 1437 1439 1440 1441 1442 1442 1443 1443 1444 1445 1446 1447 1447 1448 1448 1449 1449 1450 1451 1451 1451 1452 1452 1452 1452 1453 1454